Location: Newark
(25.6108°S, 54.5803°W)
Time: 07:32:35
(UTC+00:00)

Courier 1B - Pass Details

Date: 02 November 2020
Orbit: 962 x 1209 km, 28.3° (Epoch: 02 December)

Event Time Altitude Azimuth Distance (km) Brightness Sun altitude
Rises 23:28:51 0° 294° (WNW) 3,777 11.1 -20.2°
Reaches altitude 10° 23:31:29 10° 296° (WNW) 2,861 10.4 -20.7°
Maximum altitude 23:38:30 73° 19° (NNE) 1,152 7.7 -22.1°
Enters shadow 23:42:02 34° 95° (E) 1,779 8.4 -22.8°
Drops below altitude 10° 23:46:01 10° 102° (ESE) 3,056 - -23.5°
Sets 23:48:55 0° 103° (ESE) 4,049 - -24.1°
